Regional Weather Roundup
Issued by NWS Lake Charles, LA

Home | Current Version | Previous Version | Text Only | Print | Product List | Glossary On
Versions: 1 2 3 4 5 6 7 8 9 10 11 12 13 14 15 16 17 18 19 20 21 22 23 24 25 26 27 28
000
ASUS44 KLCH 010610
RWRLCH
REGIONAL WEATHER ROUNDUP
NATIONAL WEATHER SERVICE LAKE CHARLES LA
100 AM CDT SUN MAY 01 2016

Note: "fair" indicates few or no clouds below 12,000 feet with no
significant weather and/or obstructions to visibility.


ACROSS SOUTHEAST TEXAS

CITY           SKY/WX    TMP DP  RH WIND       PRES   REMARKS
BEAUMONT       CLOUDY    77  75  93 S7        29.80S
BEAUMONT CITY  CLOUDY    78  75  90 CALM      29.81S FOG
ORANGE         LGT RAIN  77  74  89 CALM      29.83R
JASPER         CLEAR     73  71  95 CALM      29.85S FOG
$$

ACROSS CENTRAL LOUISIANA

CITY           SKY/WX    TMP DP  RH WIND       PRES   REMARKS
LEESVILLE      CLOUDY    76  74  93 SE8       29.83S
FULLERTON      CLOUDY    75  73  93 VRB3      29.82S
ALEXANDRIA INT CLOUDY    75  72  90 S8        29.83R
ESLER FIELD    CLOUDY    74  70  87 SE5       29.86R
DERIDDER       CLOUDY    76  74  96 CALM      29.85S
OAKDALE        CLOUDY    75  73  93 CALM      29.84S
OPELOUSAS      FAIR     N/A N/A N/A SE8       29.85S
$$

ACROSS SOUTHWEST AND SOUTH CENTRAL LOUISIANA

CITY           SKY/WX    TMP DP  RH WIND       PRES   REMARKS
SULPHUR        CLOUDY    78  76  93 SE12      29.83S
LAKE CHARLES   CLOUDY    77  75  93 S8        29.82S
CHENNAULT INT  RAIN      76  75  96 S7        29.82S
CAMERON PHI    CLOUDY    77  75  94 SE15      29.84S FOG
DEQUINCY       CLOUDY    75  75 100 CALM      29.82F
JENNINGS       LGT RAIN  75  73  94 SE6       29.83F
LAFAYETTE      TSTM      74  71  91 S8        29.85S FOG
NEW IBERIA     CLOUDY    74  71  91 SE9       29.85S
ABBEVILLE      DRIZZLE   73  73  99 SE10      29.84S
PATTERSON      NOT AVBL
SALT POINT       N/A     75  72  90 SE9       29.83
$$

SELECTED SITES ACROSS THE REGION

CITY           SKY/WX    TMP DP  RH WIND       PRES   REMARKS
HOUSTON BUSH   PTCLDY    73  73 100 NE3       29.80S
HOUSTON HOBBY  MOCLDY    77  75  93 E5        29.79R
GALVESTON      CLOUDY    77  77 100 SE12      29.79F
COLLEGE STAT   PTCLDY    72  67  84 NE9       29.84R
CONROE         CLOUDY    71  70  96 N5        29.83R
HUNTSVILLE     CLEAR     71  67  87 CALM      29.85R
LUFKIN         PTCLDY    71  67  87 NW6       29.83R
SHREVEPORT     CLOUDY    74  67  78 NW9       29.83R
MONROE         PTCLDY    72  69  90 S5        29.85S
NATCHEZ MS     CLOUDY    72  64  78 S7        29.88R
BATON ROUGE    CLEAR     68  65  90 E3        29.86S
N.O. INTL ARPT PTCLDY    70  66  87 CALM      29.87S
SLIDELL        CLEAR     65  65 100 CALM      29.88S
$$

MARINE REPORTS

STATION/POSITION TIME  SKY/WX   TEMP    WIND        PRES    VSBY
                                AIR SEA DIR/SP/G
                 (UTC)          (F)     (DEG/KT/KT) (MB)    (MI)
BUOY 30 S HIGH I 0550            77 77  140/ 10/ 12 1008.2S
WVE H/P(F/S)=  4/ 8

SEA RIM ST PARK  0600            77     150/ 10/ 13 1009.6F
PORT ARTHUR      0500               76  150/  8/ 11 1009.4R
SABINE PASS N    0500            78 78  150/  9/ 14 1010.6R
TEXAS POINT      NOT AVBL
CALCASIEU PASS   0500            77 79  160/ 13/ 18 1008.8R
LK CHARLES BEACH 0500               76              1010.3R
MARSH ISLAND     0500            76     140/ 22/ 25   N/A
FRESH WATER LOCK 0500            77 77  140/ 13/ 20 1010.8R
AMERADA PASS     0500            75 72  130/  6/ 10 1011.0R
$$




USA.gov is the U.S. government's official web portal to all federal, state and local government web resources and services.